,,PA_Meas_PMT16A,,PR_Meas_QMR101_102,,RH_Meas_QMH101,,SR_Meas_QMS101,,TA_Meas_QMH101,,GenWind,,GenWind,
time,status,PA,status,PR,status,RH,status,SR,status,TA,status,DirAvg,status,SpdAvg,
2012-02-02, 00:00:04,VALID,918.07,VALID,0.2,VALID,96.1236,VALID,0,VALID,18.9229,VALID,133,VALID,1.0207,
2012-02-02, 00:01:04,VALID,918.078,VALID,0,VALID,96.0703,VALID,0,VALID,18.9424,VALID,135,VALID,1.41055,
2012-02-02, 00:02:04,VALID,918.042,VALID,0,VALID,96.0017,VALID,0,VALID,18.9229,VALID,141,VALID,0.762891,
2012-02-02, 00:03:04,VALID,918.036,VALID,0,VALID,95.9178,VALID,0,VALID,18.9229,VALID,162,VALID,1.19961,
2012-02-02, 00:04:04,VALID,918.031,VALID,0,VALID,95.9178,VALID,0,VALID,18.9229,VALID,167,VALID,1.34727,
2012-02-02, 00:05:04,VALID,918.009,VALID,0,VALID,95.9178,VALID,0,VALID,18.9034,VALID,161,VALID,1.05195,
2012-02-02, 00:06:04,VALID,918.043,VALID,0,VALID,95.895,VALID,0,VALID,18.9229,VALID,164,VALID,1.07734,
2012-02-02, 00:07:04,VALID,918.029,VALID,0,VALID,95.8797,VALID,0,VALID,18.9034,VALID,172,VALID,0.864453,
2012-02-02, 00:08:04,VALID,918.036,VALID,0,VALID,95.8797,VALID,0,VALID,18.9034,VALID,177,VALID,1.13203,
2012-02-02, 00:09:04,VALID,918.042,VALID,0,VALID,95.895,VALID,0,VALID,18.9034,VALID,175,VALID,0.71875,
2012-02-02, 00:10:04,VALID,918.03,VALID,0,VALID,95.8797,VALID,0,VALID,18.9034,VALID,175,VALID,1.01484,
2012-02-02, 00:11:04,VALID,918.016,VALID,0,VALID,95.9102,VALID,0,VALID,18.8839,VALID,178,VALID,0.99375,
2012-02-02, 00:12:04,VALID,917.981,VALID,0,VALID,95.9864,VALID,0,VALID,18.9034,VALID,157,VALID,0.234375,
2012-02-02, 00:13:04,VALID,917.936,VALID,0,VALID,96.0627,VALID,0,VALID,18.9229,VALID,157,VALID,0.303906,
2012-02-02, 00:14:04,VALID,917.923,VALID,0,VALID,96.1008,VALID,0,VALID,18.9229,VALID,157,VALID,0.190625,
2012-02-02, 00:15:04,VALID,917.901,VALID,0,VALID,96.0703,VALID,0,VALID,18.9229,VALID,157,VALID,0.280859,
2012-02-02, 00:16:04,VALID,917.833,VALID,0,VALID,96.0627,VALID,0,VALID,18.9034,VALID,157,VALID,0.269922,
2012-02-02, 00:17:04,VALID,917.802,VALID,0,VALID,96.116,VALID,0,VALID,18.9034,VALID,157,VALID,0.192578,
2012-02-02, 00:18:04,VALID,917.761,VALID,0,VALID,96.0703,VALID,0,VALID,18.9034,VALID,161,VALID,0.587109,
2012-02-02, 00:19:04,VALID,917.728,VALID,0,VALID,96.1236,VALID,0,VALID,18.9034,VALID,162,VALID,0.412109,
2012-02-02, 00:20:04,VALID,917.687,VALID,0,VALID,96.1465,VALID,0,VALID,18.8839,VALID,162,VALID,0.362891,
2012-02-02, 00:21:04,VALID,917.627,VALID,0.2,VALID,96.1618,VALID,0,VALID,18.9034,VALID,162,VALID,0.492578,
2012-02-02, 00:22:04,VALID,917.619,VALID,0,VALID,96.238,VALID,0,VALID,18.8839,VALID,162,VALID,0.349219,
2012-02-02, 00:23:04,VALID,917.602,VALID,0,VALID,96.3066,VALID,0,VALID,18.8839,VALID,162,VALID,0.145703,
2012-02-02, 00:24:04,VALID,917.583,VALID,0,VALID,96.3905,VALID,0,VALID,18.9424,VALID,162,VALID,0.164453,
2012-02-02, 00:25:04,VALID,917.551,VALID,0,VALID,96.4819,VALID,0,VALID,18.9619,VALID,162,VALID,0.457422,
2012-02-02, 00:26:04,VALID,917.555,VALID,0,VALID,96.5734,VALID,0,VALID,19.0203,VALID,162,VALID,0.299609,
2012-02-02, 00:27:04,VALID,917.536,VALID,0,VALID,96.6802,VALID,0,VALID,19.0593,VALID,162,VALID,0.408594,
2012-02-02, 00:28:04,VALID,917.544,VALID,0,VALID,96.6649,VALID,0,VALID,19.0579,VALID,162,VALID,0.515625,
2012-02-02, 00:29:04,VALID,917.565,VALID,0,VALID,96.7259,VALID,0,VALID,19.0774,VALID,162,VALID,0.511328,
2012-02-02, 00:30:04,VALID,917.547,VALID,0,VALID,96.5963,VALID,0,VALID,19.0983,VALID,162,VALID,0.636719,
2012-02-02, 00:31:04,VALID,917.546,VALID,0,VALID,96.5887,VALID,0,VALID,19.0398,VALID,162,VALID,0.602344,
2012-02-02, 00:32:04,VALID,917.5,VALID,0,VALID,96.4972,VALID,0,VALID,19.0203,VALID,162,VALID,0.659766,
2012-02-02, 00:33:04,VALID,917.506,VALID,0,VALID,96.5048,VALID,0,VALID,18.9619,VALID,162,VALID,0.672266,
2012-02-02, 00:34:04,VALID,917.472,VALID,0,VALID,96.421,VALID,0,VALID,18.9034,VALID,162,VALID,1.00156,
2012-02-02, 00:35:04,VALID,917.432,VALID,0.2,VALID,96.5048,VALID,0,VALID,18.8449,VALID,162,VALID,0.631641,
2012-02-02, 00:36:04,VALID,917.421,VALID,0,VALID,96.4819,VALID,0,VALID,18.8059,VALID,162,VALID,0.894141,
2012-02-02, 00:37:04,VALID,917.374,VALID,0,VALID,96.4438,VALID,0,VALID,18.7279,VALID,162,VALID,0.759766,
2012-02-02, 00:38:04,VALID,917.375,VALID,0,VALID,96.5582,VALID,0,VALID,18.6889,VALID,162,VALID,0.887891,
2012-02-02, 00:39:04,VALID,917.369,VALID,0,VALID,96.642,VALID,0,VALID,18.6694,VALID,162,VALID,0.671094,
2012-02-02, 00:40:04,VALID,917.294,VALID,0,VALID,96.6649,VALID,0,VALID,18.6889,VALID,162,VALID,0.886719,
2012-02-02, 00:41:04,VALID,917.336,VALID,0,VALID,96.6573,VALID,0,VALID,18.6304,VALID,162,VALID,0.904297,
2012-02-02, 00:42:04,VALID,917.304,VALID,0,VALID,96.6115,VALID,0,VALID,18.572,VALID,162,VALID,1.00547,
2012-02-02, 00:43:04,VALID,917.319,VALID,0,VALID,96.6878,VALID,0,VALID,18.533,VALID,162,VALID,0.954297,
2012-02-02, 00:44:04,VALID,917.297,VALID,0.2,VALID,96.764,VALID,0,VALID,18.5539,VALID,162,VALID,1.22383,
2012-02-02, 00:45:04,VALID,917.257,VALID,0,VALID,96.764,VALID,0,VALID,18.494,VALID,134,VALID,1.55625,
2012-02-02, 00:46:04,VALID,917.271,VALID,0,VALID,96.825,VALID,0,VALID,18.4745,VALID,45,VALID,1.34219,
2012-02-02, 00:47:04,VALID,917.292,VALID,0,VALID,96.8784,VALID,0,VALID,18.4745,VALID,45,VALID,1.08164,
2012-02-02, 00:48:04,VALID,917.27,VALID,0,VALID,96.9089,VALID,0,VALID,18.494,VALID,45,VALID,0.886719,
2012-02-02, 00:49:04,VALID,917.31,VALID,0,VALID,96.886,VALID,0,VALID,18.455,VALID,45,VALID,1.43789,
2012-02-02, 00:50:04,VALID,917.298,VALID,0,VALID,96.9089,VALID,0,VALID,18.3965,VALID,79,VALID,1.29023,
2012-02-02, 00:51:04,VALID,917.252,VALID,0,VALID,96.9394,VALID,0,VALID,18.3965,VALID,78,VALID,1.03516,
2012-02-02, 00:52:04,VALID,917.277,VALID,0,VALID,96.9851,VALID,0,VALID,18.3965,VALID,78,VALID,0.778906,
2012-02-02, 00:53:04,VALID,917.315,VALID,0,VALID,97.0003,VALID,0,VALID,18.377,VALID,78,VALID,0.938281,
2012-02-02, 00:54:04,VALID,917.336,VALID,0.2,VALID,97.0156,VALID,0,VALID,18.377,VALID,78,VALID,0.988281,
2012-02-02, 00:55:04,VALID,917.307,VALID,0,VALID,97.0308,VALID,0,VALID,18.3366,VALID,78,VALID,1.06055,
2012-02-02, 00:56:04,VALID,917.331,VALID,0,VALID,97.0232,VALID,0,VALID,18.338,VALID,58,VALID,1.03984,
2012-02-02, 00:57:04,VALID,917.325,VALID,0,VALID,97.0918,VALID,0,VALID,18.3575,VALID,58,VALID,0.814453,
2012-02-02, 00:58:04,VALID,917.328,VALID,0,VALID,97.1986,VALID,0,VALID,18.3756,VALID,39,VALID,0.851563,
2012-02-02, 00:59:04,VALID,917.295,VALID,0,VALID,97.0156,VALID,0,VALID,18.377,VALID,46,VALID,0.966406,
2012-02-02, 01:00:04,VALID,917.287,VALID,0,VALID,97.0537,VALID,0,VALID,18.338,VALID,46,VALID,0.845312,
2012-02-02, 01:01:04,VALID,917.285,VALID,0,VALID,97.0003,VALID,0,VALID,18.3185,VALID,46,VALID,0.760938,
2012-02-02, 01:02:04,VALID,917.295,VALID,0,VALID,97.0842,VALID,0,VALID,18.3185,VALID,46,VALID,0.608984,
2012-02-02, 01:03:04,VALID,917.299,VALID,0,VALID,96.9851,VALID,0,VALID,18.2796,VALID,46,VALID,0.766016,
2012-02-02, 01:04:04,VALID,917.286,VALID,0,VALID,96.9698,VALID,0,VALID,18.2406,VALID,26,VALID,0.905469,
2012-02-02, 01:05:04,VALID,917.287,VALID,0,VALID,97.1071,VALID,0,VALID,18.2796,VALID,26,VALID,0.749219,
2012-02-02, 01:06:04,VALID,917.248,VALID,0,VALID,97.1147,VALID,0,VALID,18.299,VALID,27,VALID,0.607813,
2012-02-02, 01:07:04,VALID,917.278,VALID,0.2,VALID,97.008,VALID,0,VALID,18.299,VALID,26,VALID,0.425,
2012-02-02, 01:08:04,VALID,917.238,VALID,0,VALID,97.0842,VALID,0,VALID,18.299,VALID,26,VALID,0.646094,
2012-02-02, 01:09:04,VALID,917.242,VALID,0,VALID,97.0003,VALID,0,VALID,18.2796,VALID,27,VALID,0.758984,
2012-02-02, 01:10:04,VALID,917.26,VALID,0,VALID,96.9546,VALID,0,VALID,18.2211,VALID,26,VALID,0.773828,
2012-02-02, 01:11:04,VALID,917.221,VALID,0,VALID,97.0156,VALID,0,VALID,18.2211,VALID,26,VALID,0.475781,
2012-02-02, 01:12:04,VALID,917.238,VALID,0,VALID,96.9927,VALID,0,VALID,18.2016,VALID,26,VALID,0.475391,
2012-02-02, 01:13:04,VALID,917.224,VALID,0,VALID,96.9775,VALID,0,VALID,18.1626,VALID,27,VALID,0.64375,
2012-02-02, 01:14:04,VALID,917.256,VALID,0,VALID,96.9775,VALID,0,VALID,18.164,VALID,26,VALID,0.714453,
2012-02-02, 01:15:04,VALID,917.231,VALID,0,VALID,97.0537,VALID,0,VALID,18.1626,VALID,27,VALID,0.612109,
2012-02-02, 01:16:04,VALID,917.205,VALID,0,VALID,97.0613,VALID,0,VALID,18.1821,VALID,26,VALID,0.433984,
2012-02-02, 01:17:04,VALID,917.228,VALID,0,VALID,97.0385,VALID,0,VALID,18.1626,VALID,27,VALID,0.502734,
2012-02-02, 01:18:04,VALID,917.235,VALID,0,VALID,97.0461,VALID,0,VALID,18.1626,VALID,26,VALID,0.957812,
2012-02-02, 01:19:04,VALID,917.274,VALID,0,VALID,97.069,VALID,0,VALID,18.1431,VALID,27,VALID,0.621094,
2012-02-02, 01:20:04,VALID,917.255,VALID,0,VALID,97.069,VALID,0,VALID,18.1821,VALID,27,VALID,0.537891,
2012-02-02, 01:21:04,VALID,917.246,VALID,0.2,VALID,97.0385,VALID,0,VALID,18.1626,VALID,26,VALID,0.423828,
2012-02-02, 01:22:04,VALID,917.24,VALID,0,VALID,97.0385,VALID,0,VALID,18.1626,VALID,26,VALID,0.449609,
2012-02-02, 01:23:04,VALID,917.234,VALID,0,VALID,97.0461,VALID,0,VALID,18.1626,VALID,27,VALID,0.540234,
2012-02-02, 01:24:04,VALID,917.255,VALID,0,VALID,97.0537,VALID,0,VALID,18.1821,VALID,27,VALID,0.274219,
2012-02-02, 01:25:04,VALID,917.241,VALID,0,VALID,97.0156,VALID,0,VALID,18.1835,VALID,26,VALID,0.202734,
2012-02-02, 01:26:04,VALID,917.243,VALID,0,VALID,96.9851,VALID,0,VALID,18.1431,VALID,26,VALID,0.551172,
2012-02-02, 01:27:04,VALID,917.23,VALID,0,VALID,97.0003,VALID,0,VALID,18.164,VALID,26,VALID,0.285937,
2012-02-02, 01:28:04,VALID,917.234,VALID,0,VALID,97.0156,VALID,0,VALID,18.1041,VALID,27,VALID,0.294531,
2012-02-02, 01:29:04,VALID,917.2,VALID,0,VALID,97.0537,VALID,0,VALID,18.1445,VALID,26,VALID,0.0402344,
2012-02-02, 01:30:04,VALID,917.189,VALID,0,VALID,96.9851,VALID,0,VALID,18.1431,VALID,26,VALID,0.376563,
2012-02-02, 01:31:04,VALID,917.171,VALID,0,VALID,96.9851,VALID,0,VALID,18.164,VALID,27,VALID,0,
2012-02-02, 01:32:04,VALID,917.122,VALID,0,VALID,96.9546,VALID,0,VALID,18.1431,VALID,26,VALID,0.417578,
2012-02-02, 01:33:04,VALID,917.102,VALID,0,VALID,96.9089,VALID,0,VALID,18.164,VALID,27,VALID,0.362891,
2012-02-02, 01:34:04,VALID,917.092,VALID,0,VALID,97.0003,VALID,0,VALID,18.2016,VALID,27,VALID,0.147656,
2012-02-02, 01:35:04,VALID,917.075,VALID,0,VALID,96.9698,VALID,0,VALID,18.2601,VALID,27,VALID,0.619141,
2012-02-02, 01:36:04,VALID,917.08,VALID,0,VALID,96.9394,VALID,0,VALID,18.2796,VALID,27,VALID,0.308984,
2012-02-02, 01:37:04,VALID,917.061,VALID,0,VALID,96.886,VALID,0,VALID,18.299,VALID,27,VALID,0.517578,
2012-02-02, 01:38:04,VALID,917.051,VALID,0,VALID,96.8479,VALID,0,VALID,18.299,VALID,26,VALID,0.719922,
2012-02-02, 01:39:04,VALID,917.041,VALID,0,VALID,96.7869,VALID,0,VALID,18.2796,VALID,26,VALID,0.440234,
2012-02-02, 01:40:04,VALID,917.01,VALID,0,VALID,96.8403,VALID,0,VALID,18.299,VALID,27,VALID,0.306641,
2012-02-02, 01:41:04,VALID,917.043,VALID,0,VALID,96.8479,VALID,0,VALID,18.299,VALID,26,VALID,0.470313,
2012-02-02, 01:42:04,VALID,917.026,VALID,0,VALID,96.8784,VALID,0,VALID,18.3199,VALID,26,VALID,0.610156,
2012-02-02, 01:43:04,VALID,917.015,VALID,0,VALID,96.8403,VALID,0,VALID,18.2796,VALID,26,VALID,0.631641,
2012-02-02, 01:44:04,VALID,917.031,VALID,0,VALID,96.8936,VALID,0,VALID,18.2809,VALID,26,VALID,0.61875,
2012-02-02, 01:45:04,VALID,917.024,VALID,0,VALID,96.9317,VALID,0,VALID,18.3004,VALID,27,VALID,0.68125,
2012-02-02, 01:46:04,VALID,917.032,VALID,0,VALID,97.0003,VALID,0,VALID,18.3394,VALID,26,VALID,0.524219,
2012-02-02, 01:47:04,VALID,917.044,VALID,0,VALID,96.9775,VALID,0,VALID,18.3185,VALID,27,VALID,0.429688,
2012-02-02, 01:48:04,VALID,917.076,VALID,0,VALID,96.9622,VALID,0,VALID,18.3185,VALID,26,VALID,0.388281,
2012-02-02, 01:49:04,VALID,917.065,VALID,0,VALID,96.9698,VALID,0,VALID,18.2796,VALID,173,VALID,0.694922,
2012-02-02, 01:50:04,VALID,917.073,VALID,0,VALID,96.947,VALID,0,VALID,18.2809,VALID,173,VALID,0.491406,
2012-02-02, 01:51:04,VALID,917.054,VALID,0,VALID,96.9089,VALID,0,VALID,18.2211,VALID,173,VALID,0.867969,
2012-02-02, 01:52:04,VALID,917.071,VALID,0,VALID,96.9241,VALID,0,VALID,18.2016,VALID,173,VALID,0.368359,
2012-02-02, 01:53:04,VALID,917.058,VALID,0,VALID,96.9317,VALID,0,VALID,18.1626,VALID,173,VALID,0.275,
2012-02-02, 01:54:04,VALID,917.046,VALID,0,VALID,97.008,VALID,0,VALID,18.203,VALID,173,VALID,0.324219,
2012-02-02, 01:55:04,VALID,917.068,VALID,0,VALID,96.9927,VALID,0,VALID,18.1821,VALID,173,VALID,0.305078,
2012-02-02, 01:56:04,VALID,917.078,VALID,0,VALID,97.008,VALID,0,VALID,18.1821,VALID,173,VALID,0.455859,
2012-02-02, 01:57:04,VALID,917.099,VALID,0,VALID,97.0232,VALID,0,VALID,18.1821,VALID,173,VALID,0.150781,
2012-02-02, 01:58:04,VALID,917.149,VALID,0,VALID,97.069,VALID,0,VALID,18.2016,VALID,173,VALID,0.0179687,
2012-02-02, 01:59:04,VALID,917.185,VALID,0,VALID,97.0308,VALID,0,VALID,18.2211,VALID,173,VALID,0.103125,
2012-02-02, 02:00:04,VALID,917.222,VALID,0,VALID,97.0461,VALID,0,VALID,18.2406,VALID,173,VALID,0,
2012-02-02, 02:01:04,VALID,917.274,VALID,0,VALID,97.0766,VALID,0,VALID,18.2615,VALID,173,VALID,0,
2012-02-02, 02:02:04,VALID,917.276,VALID,0,VALID,97.0918,VALID,0,VALID,18.2601,VALID,173,VALID,0,
2012-02-02, 02:03:04,VALID,917.29,VALID,0,VALID,97.2138,VALID,0,VALID,18.3199,VALID,173,VALID,0.373437,
2012-02-02, 02:04:04,VALID,917.292,VALID,0,VALID,97.1681,VALID,0,VALID,18.338,VALID,173,VALID,0.912109,
2012-02-02, 02:05:04,VALID,917.322,VALID,0,VALID,97.008,VALID,0,VALID,18.3394,VALID,51,VALID,1.06836,
2012-02-02, 02:06:04,VALID,917.316,VALID,0,VALID,96.9775,VALID,0,VALID,18.3004,VALID,51,VALID,1.05273,
2012-02-02, 02:07:04,VALID,917.31,VALID,0,VALID,96.9927,VALID,0,VALID,18.2615,VALID,51,VALID,0.661328,
2012-02-02, 02:08:04,VALID,917.304,VALID,0,VALID,96.9698,VALID,0,VALID,18.242,VALID,51,VALID,0.735547,
2012-02-02, 02:09:04,VALID,917.29,VALID,0,VALID,96.9851,VALID,0,VALID,18.203,VALID,51,VALID,0.690234,
2012-02-02, 02:10:04,VALID,917.333,VALID,0,VALID,96.9927,VALID,0,VALID,18.1835,VALID,51,VALID,0.870703,
2012-02-02, 02:11:04,VALID,917.354,VALID,0,VALID,97.069,VALID,0,VALID,18.1431,VALID,51,VALID,0.796484,
2012-02-02, 02:12:04,VALID,917.349,VALID,0,VALID,97.0308,VALID,0,VALID,18.1835,VALID,51,VALID,0.919922,
2012-02-02, 02:13:04,VALID,917.331,VALID,0,VALID,97.008,VALID,0,VALID,18.125,VALID,51,VALID,0.851563,
2012-02-02, 02:14:04,VALID,917.347,VALID,0,VALID,97.008,VALID,0,VALID,18.125,VALID,51,VALID,0.837891,
2012-02-02, 02:15:04,VALID,917.327,VALID,0,VALID,97.0156,VALID,0,VALID,18.0651,VALID,51,VALID,0.460156,
2012-02-02, 02:16:04,VALID,917.314,VALID,0,VALID,97.0232,VALID,0,VALID,18.0665,VALID,51,VALID,0.655859,
2012-02-02, 02:17:04,VALID,917.336,VALID,0,VALID,97.0766,VALID,0,VALID,18.0262,VALID,51,VALID,0.561328,
2012-02-02, 02:18:04,VALID,917.308,VALID,0,VALID,97.1376,VALID,0,VALID,18.0651,VALID,59,VALID,0.609375,
2012-02-02, 02:19:04,VALID,917.297,VALID,0,VALID,97.1528,VALID,0,VALID,18.1041,VALID,92,VALID,0.582812,
2012-02-02, 02:20:04,VALID,917.288,VALID,0.2,VALID,97.1681,VALID,0,VALID,18.1041,VALID,92,VALID,0.519922,
2012-02-02, 02:21:04,VALID,917.242,VALID,0,VALID,97.1833,VALID,0,VALID,18.1431,VALID,92,VALID,0.508594,
2012-02-02, 02:22:04,VALID,917.249,VALID,0,VALID,97.229,VALID,0,VALID,18.1835,VALID,92,VALID,0.328516,
2012-02-02, 02:23:04,VALID,917.239,VALID,0,VALID,97.2519,VALID,0,VALID,18.203,VALID,92,VALID,0.644141,
2012-02-02, 02:24:04,VALID,917.244,VALID,0,VALID,97.2672,VALID,0,VALID,18.242,VALID,92,VALID,0.403516,
2012-02-02, 02:25:04,VALID,917.214,VALID,0,VALID,97.2214,VALID,0,VALID,18.242,VALID,92,VALID,0.393359,
2012-02-02, 02:26:04,VALID,917.21,VALID,0,VALID,97.2062,VALID,0,VALID,18.2615,VALID,92,VALID,0.176953,
2012-02-02, 02:27:04,VALID,917.247,VALID,0,VALID,97.1833,VALID,0,VALID,18.2225,VALID,92,VALID,0.419531,
2012-02-02, 02:28:04,VALID,917.261,VALID,0,VALID,97.1071,VALID,0,VALID,18.203,VALID,92,VALID,0.603906,
2012-02-02, 02:29:04,VALID,917.284,VALID,0,VALID,97.2138,VALID,0,VALID,18.1835,VALID,92,VALID,0.227344,
2012-02-02, 02:30:04,VALID,917.297,VALID,0,VALID,97.2748,VALID,0,VALID,18.2406,VALID,92,VALID,0.244141,
2012-02-02, 02:31:04,VALID,917.271,VALID,0,VALID,97.2443,VALID,0,VALID,18.2809,VALID,92,VALID,0,
2012-02-02, 02:32:04,VALID,917.283,VALID,0,VALID,97.3053,VALID,0,VALID,18.2601,VALID,92,VALID,0.196875,
2012-02-02, 02:33:04,VALID,917.289,VALID,0,VALID,97.1986,VALID,0,VALID,18.2406,VALID,92,VALID,0.487109,
2012-02-02, 02:34:04,VALID,917.291,VALID,0,VALID,97.1452,VALID,0,VALID,18.2225,VALID,92,VALID,0.620313,
2012-02-02, 02:35:04,VALID,917.274,VALID,0,VALID,97.1909,VALID,0,VALID,18.2225,VALID,92,VALID,0.690625,
2012-02-02, 02:36:04,VALID,917.278,VALID,0,VALID,97.2595,VALID,0,VALID,18.2211,VALID,73,VALID,0.970312,
2012-02-02, 02:37:04,VALID,917.264,VALID,0,VALID,97.1147,VALID,0,VALID,18.1835,VALID,60,VALID,0.9625,
2012-02-02, 02:38:04,VALID,917.266,VALID,0,VALID,97.1147,VALID,0,VALID,18.1626,VALID,60,VALID,1.16172,
2012-02-02, 02:39:04,VALID,917.283,VALID,0,VALID,97.1528,VALID,0,VALID,18.1041,VALID,104,VALID,1.11328,
2012-02-02, 02:40:04,VALID,917.266,VALID,0,VALID,97.1604,VALID,0,VALID,18.0846,VALID,104,VALID,0.998828,
2012-02-02, 02:41:04,VALID,917.278,VALID,0,VALID,97.1986,VALID,0,VALID,18.086,VALID,104,VALID,1.0168,
2012-02-02, 02:42:04,VALID,917.264,VALID,0,VALID,97.1986,VALID,0,VALID,18.086,VALID,104,VALID,0.998438,
2012-02-02, 02:43:04,VALID,917.294,VALID,0,VALID,97.2443,VALID,0.107441,VALID,18.0833,VALID,104,VALID,1.07266,
2012-02-02, 02:44:04,VALID,917.334,VALID,0,VALID,97.2748,VALID,0.107441,VALID,18.1041,VALID,104,VALID,1.13672,
2012-02-02, 02:45:04,VALID,917.321,VALID,0,VALID,97.3129,VALID,0.107441,VALID,18.1028,VALID,104,VALID,0.582812,
2012-02-02, 02:46:04,VALID,917.315,VALID,0,VALID,97.3129,VALID,0.107441,VALID,18.0833,VALID,104,VALID,0.826172,
2012-02-02, 02:47:04,VALID,917.348,VALID,0,VALID,97.2977,VALID,0,VALID,18.1028,VALID,104,VALID,0.794141,
2012-02-02, 02:48:04,VALID,917.329,VALID,0,VALID,97.3053,VALID,0.107441,VALID,18.1028,VALID,103,VALID,1.20117,
2012-02-02, 02:49:04,VALID,917.338,VALID,0,VALID,97.3129,VALID,0.107441,VALID,18.1236,VALID,83,VALID,1.00156,
2012-02-02, 02:50:04,VALID,917.323,VALID,0,VALID,97.3358,VALID,0.107441,VALID,18.0833,VALID,83,VALID,1.09063,
2012-02-02, 02:51:04,VALID,917.302,VALID,0.2,VALID,97.3205,VALID,0,VALID,18.1028,VALID,83,VALID,0.907812,
2012-02-02, 02:52:04,VALID,917.297,VALID,0,VALID,97.3434,VALID,0,VALID,18.1028,VALID,83,VALID,0.417578,
2012-02-02, 02:53:04,VALID,917.298,VALID,0,VALID,97.3586,VALID,0.107441,VALID,18.1236,VALID,103,VALID,0.869141,
2012-02-02, 02:54:05,VALID,917.302,VALID,0,VALID,97.4044,VALID,0.107441,VALID,18.1222,VALID,126,VALID,0.875,
2012-02-02, 02:55:05,VALID,917.294,VALID,0,VALID,97.4044,VALID,0,VALID,18.1612,VALID,126,VALID,1.13555,
2012-02-02, 02:56:05,VALID,917.298,VALID,0,VALID,97.4273,VALID,0.107441,VALID,18.1612,VALID,156,VALID,0.950391,
2012-02-02, 02:57:05,VALID,917.297,VALID,0,VALID,97.412,VALID,0.107441,VALID,18.1821,VALID,113,VALID,1.34687,
2012-02-02, 02:58:05,VALID,917.294,VALID,0,VALID,97.3968,VALID,0,VALID,18.1835,VALID,137,VALID,0.641797,
2012-02-02, 02:59:05,VALID,917.26,VALID,0,VALID,97.4273,VALID,0,VALID,18.1821,VALID,137,VALID,1.53867,
2012-02-02, 03:00:05,VALID,917.276,VALID,0,VALID,97.4196,VALID,0,VALID,18.1821,VALID,137,VALID,1.00312,
2012-02-02, 03:01:05,VALID,917.271,VALID,0,VALID,97.4425,VALID,0,VALID,18.2016,VALID,137,VALID,0.952344,
2012-02-02, 03:02:05,VALID,917.243,VALID,0,VALID,97.4654,VALID,0,VALID,18.2016,VALID,137,VALID,0.751562,
2012-02-02, 03:03:05,VALID,917.275,VALID,0,VALID,97.4273,VALID,0,VALID,18.2016,VALID,137,VALID,0.755859,
2012-02-02, 03:04:05,VALID,917.255,VALID,0,VALID,97.4273,VALID,0,VALID,18.2016,VALID,137,VALID,0.797266,
2012-02-02, 03:05:05,VALID,917.217,VALID,0,VALID,97.4273,VALID,0,VALID,18.1821,VALID,137,VALID,0.926953,
2012-02-02, 03:06:05,VALID,917.213,VALID,0,VALID,97.4425,VALID,0,VALID,18.1626,VALID,117,VALID,1.14414,
2012-02-02, 03:07:05,VALID,917.205,VALID,0,VALID,97.4425,VALID,0,VALID,18.1835,VALID,117,VALID,0.469141,
2012-02-02, 03:08:05,VALID,917.161,VALID,0,VALID,97.4654,VALID,0,VALID,18.1821,VALID,117,VALID,0.696094,
2012-02-02, 03:09:05,VALID,917.155,VALID,0,VALID,97.4806,VALID,0,VALID,18.1626,VALID,117,VALID,0.634766,
2012-02-02, 03:10:05,VALID,917.177,VALID,0.2,VALID,97.4654,VALID,0,VALID,18.1835,VALID,117,VALID,0.896094,
2012-02-02, 03:11:05,VALID,917.188,VALID,0,VALID,97.4882,VALID,0,VALID,18.1626,VALID,117,VALID,1.07852,
2012-02-02, 03:12:05,VALID,917.188,VALID,0,VALID,97.4959,VALID,0,VALID,18.1626,VALID,134,VALID,0.86875,
2012-02-02, 03:13:05,VALID,917.213,VALID,0,VALID,97.5111,VALID,0.107441,VALID,18.2016,VALID,139,VALID,0.776563,
2012-02-02, 03:14:05,VALID,917.208,VALID,0,VALID,97.4959,VALID,0.107441,VALID,18.2016,VALID,139,VALID,0.704297,
2012-02-02, 03:15:05,VALID,917.211,VALID,0,VALID,97.4959,VALID,0.107441,VALID,18.2002,VALID,135,VALID,0.923437,
2012-02-02, 03:16:05,VALID,917.219,VALID,0,VALID,97.4959,VALID,0.107441,VALID,18.1821,VALID,132,VALID,0.367578,
2012-02-02, 03:17:05,VALID,917.23,VALID,0,VALID,97.4806,VALID,0.107441,VALID,18.1807,VALID,118,VALID,0.857422,
2012-02-02, 03:18:05,VALID,917.235,VALID,0,VALID,97.4654,VALID,0,VALID,18.1612,VALID,118,VALID,0.880078,
2012-02-02, 03:19:05,VALID,917.227,VALID,0,VALID,97.4806,VALID,0,VALID,18.1417,VALID,118,VALID,0.477344,
2012-02-02, 03:20:05,VALID,917.214,VALID,0,VALID,97.4501,VALID,0,VALID,18.1626,VALID,118,VALID,0.803125,
2012-02-02, 03:21:05,VALID,917.194,VALID,0.2,VALID,97.4806,VALID,0,VALID,18.1417,VALID,118,VALID,0.795703,
2012-02-02, 03:22:05,VALID,917.169,VALID,0,VALID,97.4501,VALID,0,VALID,18.1431,VALID,118,VALID,0.828125,
2012-02-02, 03:23:05,VALID,917.205,VALID,0,VALID,97.4806,VALID,0.107441,VALID,18.1222,VALID,118,VALID,0.767187,
2012-02-02, 03:24:05,VALID,917.178,VALID,0,VALID,97.4577,VALID,0,VALID,18.1626,VALID,118,VALID,0.568359,
2012-02-02, 03:25:05,VALID,917.166,VALID,0,VALID,97.4882,VALID,0.107441,VALID,18.1431,VALID,118,VALID,0.285156,
2012-02-02, 03:26:05,VALID,917.184,VALID,0,VALID,97.5264,VALID,0.107441,VALID,18.1222,VALID,118,VALID,0,
2012-02-02, 03:27:05,VALID,917.206,VALID,0,VALID,97.5111,VALID,0.107441,VALID,18.1612,VALID,118,VALID,0.100781,
2012-02-02, 03:28:05,VALID,917.2,VALID,0,VALID,97.534,VALID,0,VALID,18.203,VALID,118,VALID,0.111719,
2012-02-02, 03:29:05,VALID,917.217,VALID,0,VALID,97.5264,VALID,0,VALID,18.203,VALID,118,VALID,0.325391,
2012-02-02, 03:30:05,VALID,917.229,VALID,0,VALID,97.5264,VALID,0,VALID,18.203,VALID,118,VALID,0,
2012-02-02, 03:31:05,VALID,917.243,VALID,0,VALID,97.534,VALID,0,VALID,18.242,VALID,118,VALID,0.0550781,
2012-02-02, 03:32:05,VALID,917.263,VALID,0.2,VALID,97.5187,VALID,0,VALID,18.203,VALID,118,VALID,0.573438,
2012-02-02, 03:33:05,VALID,917.26,VALID,0,VALID,97.5035,VALID,0,VALID,18.1821,VALID,118,VALID,0.382031,
2012-02-02, 03:34:05,VALID,917.305,VALID,0,VALID,97.534,VALID,0,VALID,18.1821,VALID,142,VALID,0.404687,
2012-02-02, 03:35:05,VALID,917.291,VALID,0,VALID,97.5187,VALID,0,VALID,18.1821,VALID,116,VALID,0.692969,
2012-02-02, 03:36:05,VALID,917.295,VALID,0,VALID,97.4959,VALID,0,VALID,18.1835,VALID,116,VALID,0.794922,
2012-02-02, 03:37:05,VALID,917.288,VALID,0,VALID,97.5187,VALID,0,VALID,18.1835,VALID,116,VALID,0.834375,
2012-02-02, 03:38:05,VALID,917.304,VALID,0,VALID,97.5111,VALID,0,VALID,18.164,VALID,116,VALID,0.671094,
2012-02-02, 03:39:05,VALID,917.288,VALID,0,VALID,97.5187,VALID,0,VALID,18.1626,VALID,116,VALID,0.780469,
2012-02-02, 03:40:05,VALID,917.31,VALID,0,VALID,97.5187,VALID,0,VALID,18.1626,VALID,116,VALID,0.879687,
2012-02-02, 03:41:05,VALID,917.332,VALID,0.2,VALID,97.4959,VALID,0,VALID,18.164,VALID,116,VALID,0.720703,
2012-02-02, 03:42:05,VALID,917.33,VALID,0,VALID,97.5111,VALID,0,VALID,18.1431,VALID,116,VALID,0.655859,
2012-02-02, 03:43:05,VALID,917.319,VALID,0,VALID,97.5111,VALID,0,VALID,18.1236,VALID,116,VALID,0.730469,
2012-02-02, 03:44:05,VALID,917.321,VALID,0,VALID,97.5035,VALID,0,VALID,18.1236,VALID,116,VALID,0.875391,